[[{"header":{"parameterUnit":"m.s-1","parameterCategory":1,"la1":30.2991,"la2":30.254,"lo1":-89.0895,"lo2":-89.0444,"dy":0.0017,"dx":0.0017,"nx":28,"ny":28,"refTime":"2025-08-28T21:00:00:Z","depth":0,"parameterNumber":2,"parameterNumberName":"U-component_of_WINDS"},"data":[0,0,0,0,0,0,0,0,0,0,0,0,0,0,0,0,0,0,0,0,0,0,0,0,0,0,0,0,0,0,0,0,0,0,0,0,0,0,0,0,0,0,0,0,0,0,0,0,0,0,0,0,0,0,0,0,0,0,-1.267,-1.2671,0,-1.2687,-1.2687,-1.2687,-1.2674,-1.2674,-1.2673,-1.2673,-1.2692,-1.2693,-1.2694,0,0,0,0,0,0,0,0,0,0,0,0,0,-1.2629,-1.263,-1.267,-1.2671,-1.2671,-1.2687,-1.2687,-1.2687,-1.2674,-1.2674,-1.2673,-1.2672,-1.2692,-1.2693,-1.2694,0,0,0,0,0,0,0,0,0,0,0,0,0,-1.2646,-1.263,-1.267,-1.2666,-1.2666,-1.2687,-1.2687,-1.2687,-1.2675,-1.2674,-1.2673,-1.2672,-1.2691,-1.2693,-1.2694,-1.2721,0,0,-1.2699,-1.27,0,0,0,0,0,0,0,0,-1.2645,-1.2648,-1.2667,-1.2666,-1.2666,-1.2678,-1.268,-1.2699,-1.2675,-1.2671,-1.2673,-1.2672,-1.2688,-1.269,-1.2695,-1.2722,-1.2722,-1.2699,-1.27,-1.2701,-1.2701,0,0,0,0,0,0,0,-1.2644,-1.2647,-1.2677,-1.2667,-1.2667,-1.2664,-1.2666,-1.2683,-1.2684,-1.2672,-1.2671,-1.2673,-1.2688,-1.2693,-1.2695,-1.2723,-1.2699,-1.27,-1.2701,-1.2702,-1.2771,-1.2772,0,0,0,0,0,0,-1.2643,-1.2646,-1.2676,-1.2677,-1.2653,-1.2665,-1.2667,-1.2675,-1.2684,-1.2685,-1.2673,-1.2672,-1.2691,-1.2693,-1.2696,-1.2726,-1.2701,-1.2702,-1.2703,-1.277,-1.2771,-1.2772,0,0,0,0,0,0,-1.2642,-1.2646,-1.2676,-1.2662,-1.2665,-1.2667,-1.2676,-1.2676,-1.2681,-1.2685,-1.2686,-1.2679,-1.269,-1.2694,-1.2714,-1.2727,-1.2703,-1.2704,-1.2769,-1.2771,-1.2772,-1.2789,0,0,0,0,0,0,-1.2641,-1.2646,-1.2655,-1.2662,-1.2666,-1.2693,-1.2677,-1.2677,-1.2684,-1.2682,-1.269,-1.2691,-1.269,-1.2712,-1.2716,-1.2729,-1.2705,-1.2768,-1.277,-1.2771,-1.2787,-1.2791,-1.2794,0,0,0,0,0,-1.264,-1.266,-1.2656,-1.266,-1.2678,-1.2694,-1.2697,-1.2694,-1.2685,-1.2695,-1.2697,-1.2691,-1.2725,-1.2714,-1.2718,-1.2732,-1.2767,-1.2769,-1.2771,-1.2786,-1.279,-1.2793,0,0,0,0,0,0,-1.2656,-1.2661,-1.2656,-1.268,-1.2686,-1.2692,-1.2704,-1.2699,-1.271,-1.2708,-1.2705,-1.2707,-1.2729,-1.2733,-1.272,-1.2758,-1.2745,-1.2748,-1.2754,-1.2758,-1.2761,-1.276,-1.2707,0,0,0,0,0,-1.2663,-1.2675,-1.2678,-1.2699,-1.2702,-1.2703,-1.271,-1.2707,-1.2715,-1.2718,-1.2722,-1.273,-1.2742,-1.2751,-1.2762,-1.2788,-1.2789,-1.2799,-1.2802,-1.2805,-1.2807,-1.282,-1.2825,-1.2779,-1.2779,-1.2779,0,0,-1.2676,-1.268,-1.2688,-1.2702,-1.2707,-1.272,-1.2705,-1.272,-1.2729,-1.272,-1.2739,-1.2743,-1.2752,-1.2774,-1.2785,-1.2778,-1.282,-1.2808,-1.281,-1.2811,-1.2823,-1.2827,-1.2831,-1.278,-1.278,-1.278,0,0,-1.2706,-1.2711,-1.2727,-1.2733,-1.274,-1.274,-1.2744,-1.275,-1.2752,-1.2771,-1.2764,-1.2776,-1.2798,-1.2804,-1.281,-1.2842,-1.2836,-1.2846,-1.2862,-1.2875,-1.2878,-1.2882,-1.2892,-1.2896,-1.2848,-1.2848,-1.2848,0,-1.2722,-1.274,-1.2737,-1.2751,-1.2758,-1.2749,-1.2766,-1.2771,-1.2783,-1.2787,-1.278,-1.2806,-1.2812,-1.2835,-1.2843,-1.2848,-1.2853,-1.2844,-1.2878,-1.2881,-1.2884,-1.2894,-1.2898,-1.2849,-1.2849,-1.2849,-1.2849,0,-1.2759,-1.2772,-1.2784,-1.2794,-1.2802,-1.2818,-1.2817,-1.2825,-1.2822,-1.2823,-1.2843,-1.2849,-1.2861,-1.2867,-1.2864,-1.289,-1.2885,-1.2878,-1.2865,-1.289,-1.2899,-1.2903,-1.2851,-1.2851,-1.285,-1.285,0,0,-1.28,-1.2807,-1.2812,-1.2816,-1.2823,-1.2833,-1.2849,-1.286,-1.2867,-1.2875,-1.2888,-1.2906,-1.2899,-1.2906,-1.2904,-1.2915,-1.2939,-1.2906,-1.2906,-1.2911,-1.2966,-1.2971,-1.2976,-1.2935,-1.2936,-1.2937,-1.2965,0,-1.283,-1.2856,-1.2853,-1.2877,-1.2889,-1.2881,-1.2894,-1.29,-1.2902,-1.2912,-1.2914,-1.2926,-1.2917,-1.292,-1.2931,-1.2934,-1.295,-1.2932,-1.2947,-1.2947,-1.2944,-1.2981,-1.2986,-1.3013,-1.2969,-1.297,-1.297,0,-1.2868,-1.2876,-1.2902,-1.2907,-1.2911,-1.2923,-1.2933,-1.2943,-1.295,-1.295,-1.2957,-1.2953,-1.2969,-1.2956,-1.2977,-1.2965,-1.2971,-1.2973,-1.2974,-1.2975,-1.296,-1.2982,-1.3021,-1.3025,-1.2976,-1.2976,-1.2975,0,-1.2895,-1.2912,-1.2929,-1.2933,-1.2939,-1.2948,-1.2951,-1.2957,-1.2963,-1.2972,-1.2976,-1.2987,-1.2993,-1.3002,-1.3001,-1.2992,-1.3022,-1.3009,-1.3023,-1.3023,-1.3029,-1.3029,-1.307,-1.3035,-1.3034,-1.3034,-1.3034,0,-1.2928,-1.2943,-1.2941,-1.2952,-1.2969,-1.2966,-1.2983,-1.2985,-1.299,-1.3001,-1.2996,-1.3006,-1.3005,-1.3016,-1.3015,-1.3032,-1.3036,-1.3036,-1.3036,-1.3036,-1.3036,-1.3039,-1.3037,-1.3035,-1.3035,-1.3035,-1.3035,0,-1.296,-1.2959,-1.2977,-1.2981,-1.2982,-1.2995,-1.2999,-1.3009,-1.3009,-1.3023,-1.3026,-1.3028,-1.304,-1.304,-1.3054,-1.3054,-1.3075,-1.3073,-1.3072,-1.3071,-1.3084,-1.3083,-1.3129,-1.3134,-1.3096,-1.3097,-1.3097,0,-1.2981,-1.2992,-1.2997,-1.3004,-1.3007,-1.3018,-1.3024,-1.3022,-1.3029,-1.3037,-1.3046,-1.3057,-1.3066,-1.3086,-1.3089,-1.3099,-1.3097,-1.3112,-1.3099,-1.3098,-1.3096,-1.3095,-1.3096,-1.3115,-1.3115,-1.3116,-1.3116,0,-1.3017,-1.3016,-1.3025,-1.3034,-1.3041,-1.3048,-1.3055,-1.3061,-1.3059,-1.3067,-1.3079,-1.3086,-1.31,-1.3111,-1.3121,-1.3125,-1.312,-1.312,-1.3124,-1.3124,-1.3123,-1.3122,-1.3078,-1.3119,-1.3119,-1.3118,-1.3118,-1.3118,-1.3044,-1.3053,-1.3058,-1.3068,-1.3072,-1.3078,-1.3088,-1.3089,-1.3099,-1.3109,-1.3107,-1.312,-1.3127,-1.314,-1.3144,-1.3155,-1.3149,-1.3155,-1.3156,-1.3157,-1.3158,-1.3121,-1.3157,-1.3157,-1.3157,-1.3156,-1.3156,0,-1.3079,-1.3081,-1.3091,-1.3099,-1.3107,-1.3101,-1.3108,-1.3115,-1.3126,-1.3132,-1.3141,-1.3154,-1.3165,-1.3168,-1.3179,-1.3186,-1.3184,-1.3189,-1.3188,-1.3189,-1.3163,-1.3158,-1.3191,-1.3191,-1.3191,-1.3191,-1.3191,-1.3191,-1.3098,-1.3114,-1.3113,-1.3131,-1.3133,-1.3145,-1.315,-1.3155,-1.3159,-1.3174,-1.3183,-1.3185,-1.3189,-1.32,-1.321,-1.321,-1.3214,-1.322,-1.3219,-1.3194,-1.3191,-1.3188,-1.3183,-1.3221,-1.3221,-1.3245,-1.3245,-1.3245]},{"header":{"parameterUnit":"m.s-1","parameterCategory":1,"la1":30.2991,"la2":30.254,"lo1":-89.0895,"lo2":-89.0444,"dy":0.0017,"dx":0.0017,"nx":28,"ny":28,"refTime":"2025-08-28T21:00:00:Z","depth":0,"parameterNumber":3,"parameterNumberName":"V-component_of_WINDS"},"data":[0,0,0,0,0,0,0,0,0,0,0,0,0,0,0,0,0,0,0,0,0,0,0,0,0,0,0,0,0,0,0,0,0,0,0,0,0,0,0,0,0,0,0,0,0,0,0,0,0,0,0,0,0,0,0,0,0,0,-0.0228,-0.0229,0,-0.0272,-0.0272,-0.0273,-0.0258,-0.0257,-0.0256,-0.0255,-0.03,-0.0302,-0.0304,0,0,0,0,0,0,0,0,0,0,0,0,0,-0.0132,-0.0134,-0.0228,-0.0229,-0.0229,-0.0272,-0.0272,-0.0273,-0.0258,-0.0257,-0.0256,-0.0255,-0.0299,-0.0302,-0.0304,0,0,0,0,0,0,0,0,0,0,0,0,0,-0.0175,-0.0135,-0.0228,-0.0227,-0.0227,-0.0272,-0.0272,-0.0273,-0.0258,-0.0257,-0.0256,-0.0254,-0.0299,-0.0302,-0.0305,-0.0353,0,0,-0.0314,-0.0316,0,0,0,0,0,0,0,0,-0.0172,-0.0178,-0.0227,-0.0227,-0.0228,-0.0258,-0.0255,-0.03,-0.0259,-0.0247,-0.0255,-0.0254,-0.0287,-0.0291,-0.0303,-0.0355,-0.0357,-0.0314,-0.0316,-0.0318,-0.0319,0,0,0,0,0,0,0,-0.0169,-0.0176,-0.0246,-0.0227,-0.0228,-0.0224,-0.0229,-0.0263,-0.0275,-0.0248,-0.0247,-0.0252,-0.0287,-0.03,-0.0303,-0.0357,-0.0314,-0.0317,-0.0319,-0.032,-0.0451,-0.0453,0,0,0,0,0,0,-0.0166,-0.0174,-0.0244,-0.0247,-0.0196,-0.0227,-0.0232,-0.025,-0.0274,-0.0276,-0.0253,-0.0251,-0.0295,-0.03,-0.0305,-0.0363,-0.0318,-0.0321,-0.0322,-0.045,-0.0452,-0.0453,0,0,0,0,0,0,-0.0164,-0.0173,-0.0242,-0.021,-0.0219,-0.0231,-0.025,-0.0251,-0.0264,-0.0278,-0.028,-0.0264,-0.0294,-0.0301,-0.0341,-0.0364,-0.0322,-0.0325,-0.0448,-0.045,-0.0452,-0.0479,0,0,0,0,0,0,-0.0162,-0.0172,-0.019,-0.0211,-0.0221,-0.0278,-0.0252,-0.0253,-0.0269,-0.0267,-0.0289,-0.0291,-0.0293,-0.0336,-0.0344,-0.0368,-0.0327,-0.0446,-0.0449,-0.0452,-0.0476,-0.0482,-0.0487,0,0,0,0,0,-0.0158,-0.0196,-0.0191,-0.02,-0.0244,-0.0279,-0.0285,-0.0287,-0.0271,-0.029,-0.0299,-0.029,-0.036,-0.0341,-0.0349,-0.0374,-0.0444,-0.0448,-0.0451,-0.0474,-0.0481,-0.0487,0,0,0,0,0,0,-0.0178,-0.0199,-0.0194,-0.024,-0.0258,-0.0277,-0.03,-0.0294,-0.0317,-0.0314,-0.0316,-0.0321,-0.0362,-0.0372,-0.035,-0.0422,-0.04,-0.0405,-0.0414,-0.0421,-0.0427,-0.0424,-0.033,0,0,0,0,0,-0.0188,-0.0215,-0.0232,-0.027,-0.028,-0.0288,-0.0304,-0.0304,-0.0323,-0.033,-0.0343,-0.0361,-0.0387,-0.0405,-0.043,-0.0478,-0.0482,-0.0499,-0.0504,-0.0509,-0.0514,-0.054,-0.0548,-0.0465,-0.0465,-0.0465,0,0,-0.0209,-0.0223,-0.024,-0.0275,-0.0289,-0.0317,-0.0295,-0.0325,-0.0346,-0.0335,-0.0374,-0.0383,-0.0404,-0.0449,-0.0469,-0.0458,-0.0538,-0.0514,-0.0517,-0.0519,-0.0544,-0.0552,-0.0559,-0.0468,-0.0467,-0.0467,0,0,-0.026,-0.0274,-0.0308,-0.0322,-0.0344,-0.035,-0.0358,-0.0377,-0.0383,-0.0422,-0.0415,-0.0439,-0.0484,-0.05,-0.0513,-0.0571,-0.0564,-0.0579,-0.0608,-0.0633,-0.064,-0.0645,-0.0666,-0.0674,-0.0583,-0.0584,-0.0584,0,-0.0283,-0.0325,-0.0326,-0.0357,-0.0373,-0.0364,-0.0398,-0.0412,-0.0441,-0.0452,-0.0439,-0.0496,-0.0509,-0.0557,-0.0571,-0.0582,-0.0592,-0.0577,-0.0639,-0.0644,-0.065,-0.067,-0.0677,-0.0585,-0.0585,-0.0585,-0.0585,0,-0.0352,-0.0381,-0.0406,-0.0434,-0.0452,-0.0485,-0.0491,-0.0509,-0.0508,-0.0514,-0.0554,-0.057,-0.0598,-0.0609,-0.0608,-0.0657,-0.065,-0.0638,-0.0616,-0.0659,-0.0678,-0.0686,-0.0588,-0.0587,-0.0587,-0.0586,0,0,-0.0418,-0.0446,-0.0455,-0.0468,-0.0491,-0.0514,-0.0546,-0.0573,-0.0589,-0.0609,-0.0636,-0.0674,-0.0664,-0.0679,-0.0679,-0.0702,-0.0746,-0.0687,-0.0688,-0.0698,-0.0802,-0.0811,-0.0819,-0.0742,-0.0743,-0.0744,-0.08,0,-0.0472,-0.0529,-0.0531,-0.0582,-0.0609,-0.0601,-0.0629,-0.0646,-0.0653,-0.0677,-0.0685,-0.0712,-0.0696,-0.0705,-0.0727,-0.0736,-0.0767,-0.0732,-0.0767,-0.0768,-0.0762,-0.0829,-0.0839,-0.0891,-0.0807,-0.0808,-0.0809,0,-0.0542,-0.0565,-0.0619,-0.0639,-0.065,-0.0675,-0.0701,-0.0723,-0.0743,-0.0746,-0.0764,-0.076,-0.0793,-0.077,-0.0815,-0.0791,-0.0806,-0.0812,-0.0814,-0.0818,-0.0792,-0.0835,-0.0907,-0.0915,-0.0821,-0.082,-0.0819,0,-0.0585,-0.0629,-0.0667,-0.0678,-0.0702,-0.072,-0.073,-0.0748,-0.0765,-0.0787,-0.0797,-0.0823,-0.0837,-0.0857,-0.086,-0.0843,-0.0906,-0.0883,-0.091,-0.091,-0.0924,-0.0923,-0.1,-0.0933,-0.0933,-0.0932,-0.0932,0,-0.0646,-0.0679,-0.0687,-0.0711,-0.0748,-0.075,-0.0787,-0.0796,-0.0812,-0.0838,-0.0832,-0.0856,-0.0859,-0.0884,-0.0887,-0.0924,-0.093,-0.0934,-0.0935,-0.0935,-0.0935,-0.0945,-0.0941,-0.0934,-0.0934,-0.0934,-0.0933,0,-0.07,-0.0707,-0.0748,-0.0767,-0.0772,-0.0799,-0.0815,-0.0838,-0.0844,-0.0876,-0.0884,-0.0894,-0.0923,-0.0928,-0.0962,-0.0964,-0.1009,-0.1005,-0.1002,-0.1002,-0.1029,-0.1027,-0.1116,-0.1127,-0.1052,-0.1052,-0.1053,0,-0.0738,-0.0764,-0.0786,-0.0802,-0.0814,-0.084,-0.0857,-0.086,-0.0877,-0.0901,-0.0921,-0.0949,-0.0972,-0.1018,-0.1028,-0.1054,-0.1052,-0.1081,-0.1055,-0.1055,-0.1052,-0.1051,-0.1054,-0.1086,-0.1087,-0.1087,-0.1088,0,-0.0805,-0.0807,-0.0832,-0.0857,-0.0877,-0.0898,-0.0917,-0.0931,-0.0936,-0.0956,-0.0985,-0.1003,-0.1037,-0.1065,-0.1091,-0.1102,-0.1096,-0.1096,-0.1104,-0.1104,-0.1102,-0.1104,-0.1016,-0.1094,-0.1093,-0.1093,-0.1093,-0.1092,-0.0853,-0.0876,-0.0894,-0.0922,-0.0937,-0.0955,-0.0977,-0.0986,-0.1011,-0.1039,-0.1039,-0.1071,-0.109,-0.1124,-0.1136,-0.1161,-0.1152,-0.1163,-0.1166,-0.1169,-0.1172,-0.1097,-0.1166,-0.1166,-0.1166,-0.1166,-0.1165,0,-0.092,-0.0932,-0.0957,-0.0984,-0.1006,-0.0998,-0.1019,-0.1037,-0.1066,-0.1084,-0.1106,-0.114,-0.1167,-0.1179,-0.1206,-0.1224,-0.1222,-0.1231,-0.123,-0.1232,-0.1178,-0.1169,-0.1232,-0.1232,-0.1232,-0.1232,-0.1232,-0.1232,-0.0957,-0.0995,-0.1,-0.1045,-0.1056,-0.1088,-0.11,-0.1117,-0.1131,-0.1169,-0.1192,-0.12,-0.1216,-0.1243,-0.1268,-0.1271,-0.1281,-0.1291,-0.1293,-0.1243,-0.1236,-0.1229,-0.1221,-0.1294,-0.1294,-0.1345,-0.1345,-0.1346]}]]